Location: Csohesd
(46.2500°N, 22.6167°E)
Time: 20:24:12
(UTC+00:00)

Daily predictions for brighter satellites

Satellite Brightness Start Highest point End
(mag) Time Altitude Azimuth Time Altitude Azimuth Time Altitude Azimuth
CENTAUR R/B 4.4 18:39:23 10° NNW 18:46:08 32° NNE 18:53:37 10° E
STARLINK-1102 4.3 18:45:20 10° NW 18:49:24 51° NNE 18:53:27 10° E
STARLINK-1269 4.0 18:45:46 10° WSW 18:49:54 71° NNW 18:54:03 10° ENE
STARLINK-1117 4.0 18:48:05 10° WNW 18:52:09 55° SW 18:56:11 10° SE
STARLINK-1111 4.2 18:50:18 10° NW 18:54:23 54° NNE 18:58:27 10° E
ISS -2.7 18:51:30 10° WNW 18:54:36 35° SW 18:57:42 10° SSE
STARLINK-1200 4.1 18:50:45 10° WSW 18:54:52 67° NNW 18:59:00 10° ENE
Meteor 1-12 Rocket 4.3 18:49:29 10° N 18:55:11 81° E 19:00:54 10° SSE
STARLINK-1078 4.1 18:53:05 10° WNW 18:57:06 50° SW 19:01:07 10° SE
SL-4 R/B 3.0 18:55:33 10° NW 18:58:10 27° WSW 19:00:36 10° S
Intercosmos 24 3.7 18:55:32 10° N 18:59:05 65° E 19:02:59 10° SSE
STARLINK-1073 4.1 18:55:19 10° NW 18:59:24 57° NNE 19:03:29 10° ESE
STARLINK-1192 4.2 18:55:47 10° WSW 18:59:53 63° NNW 19:04:01 10° ENE
Cosmos 2221 Rocket 3.7 18:56:59 10° S 19:01:30 88° W 19:06:06 10° N
STARLINK-1108 4.3 18:58:04 10° WNW 19:02:03 46° SW 19:06:01 10° SE
Cosmos 332 Rocket 3.8 18:57:19 10° S 19:02:11 69° ESE 19:07:04 10° NNE
SL-4 R/B 3.8 19:00:29 10° S 19:03:34 17° SE 19:06:43 10° E
STARLINK-1121 4.0 19:00:16 10° WNW 19:04:23 60° NNE 19:08:29 10° ESE
NOSS 2-2 (E) 3.7 19:01:30 10° S 19:04:47 36° ESE 19:08:23 10° NE
STARLINK-1244 4.3 19:00:46 10° WSW 19:04:52 59° NNW 19:08:59 10° NE
Meteor 1-4 Rocket 4.5 19:03:35 10° SW 19:06:42 31° WNW 19:09:51 10° N
Landsat 7 4.4 19:02:24 10° SE 19:06:54 44° ENE 19:11:26 10° N
STARLINK-1071 4.4 19:03:04 10° WNW 19:07:00 43° SW 19:10:56 10° SSE
STARLINK-1106 3.9 19:05:15 10° WNW 19:09:23 64° NNE 19:13:29 10° ESE
STARLINK-1138 4.4 19:05:47 10° WSW 19:09:51 56° NNW 19:13:57 10° NE
STARLINK-1110 4.5 19:06:50 10° WNW 19:10:43 40° SW 19:14:30 11° SSE
Nadezhda 4 Rocket 4.4 19:08:23 10° SSE 19:14:07 44° E 19:19:53 10° NNE
STARLINK-1112 3.9 19:10:12 10° WNW 19:14:21 67° NNE 19:18:28 10° ESE
Okean 1 Rocket 3.6 19:10:30 10° N 19:14:47 43° ENE 19:18:41 12° SSE
Cosmos 1378 4.4 19:13:54 12° SE 19:16:38 24° E 19:19:39 10° NE
USA 245 2.8 19:14:50 12° SSE 19:17:18 44° ENE 19:19:43 10° N
Okean 2 Rocket 3.7 19:13:40 10° NNW 19:18:00 56° W 19:22:18 10° S
STARLINK-1128 3.8 19:15:12 10° WNW 19:19:21 72° NNE 19:23:19 11° ESE
Resurs 01 Rocket 2.2 19:15:31 10° S 19:19:54 58° W 19:24:19 10° NNW
Cosmos 2279 Rocket 4.2 19:16:16 10° N 19:22:31 78° W 19:28:42 10° S
CZ-2C R/B 3.7 19:18:41 10° N 19:24:07 51° WNW 19:29:31 10° SW
STARLINK-1113 3.7 19:20:10 10° WNW 19:24:20 76° NNE 19:28:05 12° ESE
Cosmos 1437 Rocket 2.7 19:20:59 10° S 19:24:46 90° SE 19:28:38 10° N
Cosmos 1452 Rocket 4.1 19:20:01 10° SSW 19:25:14 62° WNW 19:30:31 10° NNE
SPOT 5 3.8 19:23:28 12° SE 19:27:52 40° ENE 19:32:51 10° N
Meteor 1-15 Rocket 4.4 19:23:03 10° N 19:29:01 76° E 19:34:38 11° SSE
STARLINK-1119 3.7 19:25:10 10° WNW 19:29:19 81° NNE 19:32:53 14° ESE
NOSS 2-2 (C) 3.2 19:26:06 10° SSW 19:29:34 51° ESE 19:33:21 10° NE
CARTOSAT-1 4.3 19:27:23 14° SE 19:30:43 39° ENE 19:34:46 10° N
Cosmos 2151 Rocket 4.2 19:28:32 10° NNW 19:33:00 57° W 19:37:25 10° S
SL-8 R/B 3.7 19:28:24 10° WNW 19:33:13 80° SSW 19:37:30 13° ESE
ATLAS 2AS CENTAUR R/B 4.0 19:27:55 10° SSE 19:33:52 24° ESE 19:39:56 10° ENE
STARLINK-1114 3.6 19:30:07 10° WNW 19:34:17 87° NNE 19:37:39 15° ESE
Cosmos 1943 Rocket 2.7 19:30:52 10° S 19:35:58 39° ESE 19:41:06 10° NE
NOSS 3-2 (A) 4.3 19:28:58 10° NW 19:36:20 65° NE 19:43:46 14° SE
Cosmos 1833 Rocket 4.4 19:32:49 10° NW 19:37:25 27° WSW 19:42:00 10° SSW
STARLINK-1130 (DARKSAT) 3.6 19:35:07 10° WNW 19:39:17 88° SSW 19:42:27 17° ESE
Cosmos 2297 3.7 19:35:41 10° SSW 19:41:22 90° NW 19:47:08 10° NNE
Abrixas rocket 2.4 19:39:34 10° W 19:42:24 43° SSW 19:43:50 23° SSE
Aureole 2 4.2 19:39:56 10° NNW 19:43:00 67° WSW 19:44:55 19° S
ERS-1 Rocket 3.2 19:39:34 16° SSE 19:43:34 61° ENE 19:48:32 10° N
STARLINK-1084 3.6 19:40:06 10° WNW 19:44:15 83° SSW 19:47:13 18° SE
Cosmos 1766 3.7 19:41:43 10° N 19:45:35 47° ENE 19:48:05 20° SE
SAR-Lupe-2 3.5 19:42:32 10° NNE 19:46:09 89° WNW 19:49:44 10° SSW
Cosmos 2082 Rocket 3.4 19:41:14 10° NW 19:46:26 37° WSW 19:51:36 10° S
EXPRESS MD2 3.4 19:44:26 10° WSW 19:47:32 89° S 19:53:34 10° ENE
USA 238 DEB 4.0 19:41:41 10° NW 19:48:54 72° NE 19:54:59 16° SE
USA 238 4.0 19:41:47 10° NW 19:49:00 71° NE 19:55:06 16° SE
STARLINK-1098 3.6 19:45:04 10° WNW 19:49:13 77° SW 19:52:00 20° SE
Terra 2.4 19:48:42 18° SE 19:51:55 44° ENE 19:56:27 10° N
STARLINK-1123 3.6 19:50:04 10° WNW 19:54:12 71° SW 19:56:47 22° SE
Cosmos 2369 Rocket 2.7 19:51:09 14° S 19:55:41 40° ESE 20:00:56 10° NE
Meteor 1-23 Rocket 4.4 19:51:38 10° SSW 19:57:20 77° WNW 20:02:59 10° N
STARLINK-1097 3.7 19:55:04 10° WNW 19:59:11 66° SW 20:01:35 24° SE
Cosmos 1092 Rocket 4.0 19:55:25 14° S 20:00:36 62° E 20:06:40 10° NNE
BREEZE-M DEB (TANK) 4.4 19:53:52 10° SSW 20:01:13 21° SSE 20:02:41 19° SE
STARLINK-1099 3.7 20:00:03 10° WNW 20:04:09 61° SW 20:06:21 25° SE
IGS 5A 4.2 20:02:19 14° S 20:05:44 47° W 20:09:46 10° NNW
Aureole 2 Rocket 4.3 20:03:11 10° WSW 20:05:51 26° WNW 20:08:26 10° N
Cosmos 1378 Rocket 4.2 20:01:58 10° SSW 20:06:17 54° WNW 20:10:36 10° N
STARLINK-1104 3.8 20:05:02 10° WNW 20:09:06 56° SW 20:11:08 27° SSE
Cosmos 1110 Rocket 4.5 20:05:49 10° SSW 20:10:57 62° WNW 20:16:06 10° NNE
Spot 2 Rocket 4.5 20:06:41 11° SSW 20:11:17 42° W 20:16:05 10° NNW
STARLINK-1234 4.2 20:09:35 10° NW 20:12:52 41° NNE 20:15:25 15° E
STARLINK-1209 4.1 20:10:18 10° NW 20:13:30 42° NNE 20:15:52 16° E
STARLINK-1144 3.9 20:10:03 10° WNW 20:14:05 52° SW 20:15:56 28° SSE
Meteor 1-22 Rocket 4.2 20:09:19 10° N 20:15:14 85° ENE 20:19:01 22° SSE
BREEZE-M DEB 2.6 20:12:51 10° WSW 20:15:19 74° SSE 20:21:23 10° ENE
SPOT 1/Viking Rocket 4.2 20:14:04 15° S 20:18:12 51° W 20:23:14 10° NNW
STARLINK-1103 4.0 20:15:02 10° WNW 20:19:01 48° SW 20:20:41 30° SSE
Cosmos 1805 3.8 20:20:09 10° NNW 20:23:59 52° W 20:26:16 22° SSW
STARLINK-1101 4.1 20:20:02 10° WNW 20:23:59 44° SW 20:25:28 30° S
ATLAS CENTAUR R/B 2.7 20:25:10 23° ESE 20:25:10 23° ESE 20:28:27 10° ENE
STARLINK-60 2.8 20:22:10 10° SW 20:25:19 66° SE 20:28:28 10° ENE
Cosmos 1470 3.5 20:21:45 10° N 20:25:25 39° ENE 20:26:44 29° ESE
ATLAS 5 CENTAUR R/B 2.9 20:20:50 10° SSW 20:27:00 28° SE 20:29:19 10° ENE
Cosmos 1975 Rocket 3.0 20:24:14 23° S 20:27:01 87° E 20:31:27 10° N
MTI 3.7 20:24:32 10° NNE 20:27:39 60° E 20:28:21 45° SSE
Lacrosse 5 4.3 20:27:12 10° WSW 20:27:59 10° WSW 20:28:46 10° SW
STARLINK-1102 4.3 20:25:03 10° WNW 20:28:57 40° SW 20:30:16 31° S
Cosmos 1953 4.0 20:25:54 10° NNE 20:29:01 21° ENE 20:30:18 18° E
Okean 2 3.5 20:26:59 21° SSW 20:29:40 77° W 20:33:51 10° N
BREEZE M DEB (TANK) 2.6 20:26:17 10° W 20:30:32 62° NNW 20:32:41 10° ENE
USA 215 4.4 20:24:31 10° E 20:30:34 41° NNE 20:36:36 10° NW
STARLINK-1111 4.4 20:30:03 10° WNW 20:33:52 37° SW 20:35:01 31° S
Cosmos 1302 Rocket 4.2 20:32:21 10° SSW 20:37:38 76° WNW 20:42:58 10° NNE
CENTAUR R/B 3.2 20:29:58 10° NW 20:38:02 82° NE 20:44:11 22° SE
BREEZE-M DEB (TANK) 3.9 20:26:31 10° WNW 20:38:09 59° SW 20:40:36 29° SSE
STARLINK-1073 4.5 20:35:05 10° WNW 20:38:51 34° SW 20:39:50 30° SSW
Cosmos 1842 3.3 20:37:51 28° SSW 20:39:47 76° W 20:43:42 10° N
Cosmos 1486 Rocket 4.0 20:34:47 10° NNW 20:40:07 89° ENE 20:42:45 31° SSE
Cosmos 1025 Rocket 3.6 20:39:03 32° SE 20:40:15 40° E 20:44:17 10° NNE
ATLAS 3B R/B 3.4 20:35:37 10° NNW 20:42:09 48° NE 20:47:47 15° ESE
SL-4 R/B 2.3 20:37:55 10° SW 20:42:40 72° SSE 20:47:31 10° ENE
Cosmos 2026 Rocket 4.0 20:39:08 19° S 20:43:48 85° W 20:50:14 10° N
Cosmos 1758 3.5 20:40:36 10° N 20:44:38 58° E 20:45:55 39° SE
Cosmos 1242 Rocket 2.4 20:45:19 42° S 20:46:29 84° E 20:50:11 10° NNE
NOSS 3-2 (C) 4.1 20:39:12 10° NW 20:46:47 84° SW 20:52:07 26° SSE
Cosmos 2263 4.1 20:43:45 21° SSW 20:47:37 74° ESE 20:53:14 10° NNE
Cosmos 1553 Rocket 4.0 20:42:37 10° N 20:48:55 72° E 20:52:11 30° SSE
Cosmos 292 Rocket 3.7 20:46:32 23° SSW 20:49:35 89° SE 20:54:29 10° NNE
STARLINK-1212 3.4 20:48:42 10° NW 20:51:46 55° NNE 20:52:35 39° E
SL-27 R/B 3.1 20:48:29 10° NNW 20:51:56 46° WSW 20:52:48 37° SSW
STARLINK-1105 3.4 20:49:12 10° NW 20:52:16 55° NNE 20:53:03 40° E
Cosmos 1733 4.4 20:49:00 10° NNW 20:52:30 35° W 20:54:10 23° SW
STARLINK-1247 3.4 20:50:03 10° NW 20:53:07 56° NNE 20:53:55 41° E
STARLINK-1227 3.3 20:50:32 10° NW 20:53:37 57° NNE 20:54:21 42° ENE
BREEZE-M DEB (TANK) 4.1 20:39:16 10° WNW 20:53:37 86° SSW 20:56:12 26° ESE
STARLINK-1226 3.3 20:51:24 10° NW 20:54:29 57° NNE 20:55:13 43° E
STARLINK-1215 3.3 20:52:18 10° NW 20:55:24 58° NNE 20:56:06 44° E
STARLINK-29 3.8 20:56:40 36° E 20:56:40 36° E 20:58:46 10° ENE
NOSS 3-4 (A) 3.4 20:51:55 21° SSW 20:55:50 61° ESE 21:02:02 10° NE
NOSS 3-4 (C) 3.4 20:52:05 22° SSW 20:55:56 60° ESE 21:02:08 10° NE
STARLINK-1217 3.2 20:54:07 10° NW 20:57:13 60° NNE 20:57:50 47° ENE
Cosmos 1455 Rocket 3.5 20:53:04 10° NNW 20:57:19 55° W 20:59:07 31° SSW
STARLINK-1229 3.2 20:55:01 10° NW 20:58:07 61° NNE 20:58:42 48° ENE
COSMOS 2487 3.5 20:55:35 10° N 20:58:47 34° ENE 20:59:27 31° E
STARLINK-1270 3.2 20:55:56 10° NW 20:59:02 62° NNE 20:59:36 50° ENE
Cosmos 1992 Rocket 3.9 20:57:28 31° S 20:59:55 70° ESE 21:05:07 10° NNE
SeaSat 1 3.0 20:55:36 10° NE 21:00:14 39° ESE 21:01:18 35° SE
STARLINK-1189 3.1 20:57:43 10° NW 21:00:49 64° NNE 21:01:18 53° ENE
OE (NEXTSAT) 4.2 20:57:54 10° WSW 21:01:23 67° SSE 21:01:33 65° SE
STARLINK-1188 3.1 20:58:36 10° NW 21:01:44 65° NNE 21:02:11 55° ENE
Cosmos 1655 Rocket 4.1 20:58:56 31° SSE 21:01:56 61° E 21:08:07 10° NNE
Cosmos 1271 Rocket 2.6 21:01:07 46° S 21:02:12 87° E 21:06:10 10° NNE
Meteor 1-21 4.3 21:00:07 23° SSW 21:03:41 75° WNW 21:09:19 10° N
STARLINK-1187 2.9 21:00:50 10° WNW 21:04:00 75° NNE 21:04:16 68° ENE
STARLINK-1191 3.0 21:01:03 10° NW 21:04:09 68° NNE 21:04:28 61° ENE
Cosmos 1833 4.1 20:58:29 10° NNW 21:04:10 89° ENE 21:06:41 35° SSE
Cosmos 1867 3.6 20:59:06 10° NW 21:04:36 80° NE 21:07:06 33° SE
STARLINK-1221 3.0 21:01:59 10° WNW 21:05:05 69° NNE 21:05:22 63° ENE
Aureole 3 Rocket 4.5 20:59:21 10° NNW 21:05:48 80° W 21:11:05 26° S
STARLINK-1222 2.9 21:02:50 10° WNW 21:05:57 70° NNE 21:06:12 65° ENE
SPOT 5 4.4 21:02:42 17° SSW 21:05:59 31° W 21:10:44 10° NNW
STARLINK-1214 2.9 21:03:46 10° WNW 21:06:53 71° NNE 21:07:06 67° ENE
Cosmos 1726 2.5 21:06:06 10° N 21:09:44 49° ENE 21:10:17 45° ESE
Cosmos 1707 2.6 21:11:45 53° S 21:12:38 89° ESE 21:16:33 10° N
Meteor 2-8 Rocket 4.4 21:07:54 10° N 21:14:06 83° E 21:16:58 34° SSE
Cosmos 2266 Rocket 4.1 21:12:55 33° SSE 21:15:26 56° E 21:21:19 10° NNE
COSMOS 2455 2.9 21:12:53 33° S 21:15:31 59° ESE 21:21:26 10° NE
Cosmos 1943 Rocket 3.6 21:14:36 10° WSW 21:19:43 37° NW 21:24:54 10° NNE
Meteor 1-16 Rocket 4.2 21:15:53 10° N 21:21:22 65° ENE 21:23:23 38° SE
STARLINK-1235 3.2 21:20:00 10° WNW 21:22:52 60° W 21:22:52 60° W
STARLINK-1218 4.4 21:19:16 10° NW 21:23:19 49° NNE 21:26:08 18° E
ATLAS 2AS CENTAUR R/B 3.0 21:16:02 10° SW 21:24:02 89° NW 21:32:02 10° NE
Meteor 2-10 3.9 21:21:08 10° NNW 21:26:11 84° W 21:27:54 43° S
Cosmos 1536 Rocket 3.6 21:25:32 43° SSW 21:26:53 74° W 21:31:16 10° N
ATLAS 3B CENTAUR R/B 4.5 21:21:54 10° WSW 21:27:06 16° SSW 21:27:06 16° SSW
STARLINK-1254 4.3 21:24:16 10° NW 21:28:20 52° NNE 21:30:56 20° E
EO 1 Del DPAF 3.2 21:25:04 10° N 21:28:51 77° WNW 21:29:35 56° SW
Terra 3.6 21:27:35 17° SW 21:29:51 23° W 21:33:38 10° NW
STARLINK-52 3.1 21:31:33 70° NNE 21:31:33 70° NNE 21:34:31 10° ENE
Thor Agena Rocket 3.6 21:27:42 10° NNE 21:33:01 76° WNW 21:35:27 33° SSW
STARLINK-1231 4.2 21:29:15 10° NW 21:33:20 55° NNE 21:35:43 23° E
STARLINK-1228 3.6 21:30:20 10° WNW 21:33:15 49° WSW 21:33:15 49° WSW
Helios 1A 4.3 21:34:10 26° E 21:35:24 31° ENE 21:39:07 10° N
Cosmos 968 Rocket 4.3 21:31:10 10° NW 21:35:55 39° WSW 21:37:33 30° SW
Cosmos 883 Rocket 4.4 21:30:08 10° N 21:36:18 75° E 21:38:49 37° SSE
BREEZE-M DEB (TANK) 4.4 21:33:24 10° WSW 21:37:36 86° NNW 21:54:14 10° ENE
STARLINK-1232 4.1 21:34:12 10° NW 21:38:18 58° NNE 21:40:28 26° E
Aureole 3 3.0 21:36:08 10° N 21:38:56 60° NE 21:38:56 60° NE
Cosmos 1626 4.0 21:39:33 18° E 21:39:33 18° E 21:42:06 10° NE
Cosmos 2369 Rocket 3.6 21:34:33 10° WSW 21:39:45 36° NW 21:44:57 10° NNE
Cosmos 2227 Rocket 4.1 21:36:56 10° N 21:41:30 24° NE 21:46:01 10° E
STARLINK-1208 4.0 21:39:10 10° WNW 21:43:17 61° NNE 21:45:15 29° E
Cosmos 1777 Rocket 4.3 21:39:18 10° NNW 21:44:30 62° ENE 21:46:28 37° SE
Cosmos 1656 Rocket 4.2 21:43:16 19° SW 21:47:13 56° WNW 21:52:43 10° NNE
BREEZE-M DEB (TANK) 3.4 21:38:22 10° W 21:48:00 63° NNW 21:51:04 10° ENE
STARLINK-1271 3.9 21:44:10 10° WNW 21:48:17 65° NNE 21:50:02 32° E
RESURS DK-1 2.4 21:51:50 57° ESE 21:51:57 57° ESE 21:56:02 10° NE
ALOS 2 2.5 21:51:14 56° SSE 21:52:09 83° ENE 21:56:34 10° NNW
Cosmos 2058 Rocket 4.1 21:48:26 10° N 21:52:33 36° ENE 21:53:43 31° ESE
STARLINK-1154 3.8 21:49:09 10° WNW 21:53:18 69° NNE 21:54:50 36° E
Cosmos 1908 3.1 21:50:04 10° N 21:53:53 76° E 21:54:09 71° ESE
Timation 2 Rocket 4.0 21:48:03 10° NNW 21:54:22 71° ENE 21:57:14 33° SE
Cosmos 1340 Rocket 3.3 21:51:56 10° NNW 21:55:53 50° W 21:56:25 46° WSW
STARLINK-1197 3.7 21:54:07 10° WNW 21:58:17 73° NNE 21:59:36 41° ESE
Cosmos 1606 Rocket 3.4 21:56:10 10° N 22:00:31 83° E 22:01:15 61° SSE
STARLINK-1198 3.6 21:59:04 10° WNW 22:03:14 78° NNE 22:04:22 47° ESE
KORONAS-FOTON 3.6 22:03:19 78° SSW 22:03:34 89° WNW 22:07:26 10° N
ATLAS CENTAUR R/B 2.3 22:01:17 21° WSW 22:03:47 45° NW 22:07:45 10° NNE
Cosmos 2084 3.4 22:04:35 62° S 22:05:09 71° SE 22:09:37 10° NE
Cosmos 1953 3.4 22:01:53 10° NNW 22:05:28 32° W 22:06:00 31° WSW
STARLINK-1338 3.8 22:08:18 48° E 22:08:18 48° E 22:11:14 10° ENE
STARLINK-1199 3.6 22:04:05 10° WNW 22:08:15 83° NNE 22:09:10 53° ESE
USA 215 3.3 22:07:49 17° ESE 22:13:09 84° NE 22:19:44 10° NW
STARLINK-1210 3.5 22:09:03 10° WNW 22:13:13 88° NNE 22:13:57 60° ESE
STARLINK-1371 3.6 22:14:58 59° E 22:14:58 59° E 22:18:11 10° ENE
SL-4 R/B 3.8 22:17:36 12° NW 22:17:36 12° NW 22:17:54 10° NW
Cosmos 1300 3.3 22:13:36 10° N 22:17:17 44° ENE 22:17:41 42° E
Cosmos 2315 Rocket 4.1 22:11:27 10° NNW 22:17:36 68° W 22:19:57 39° SSW
STARLINK-1341 3.4 22:18:21 67° E 22:18:21 67° E 22:21:44 10° ENE
STARLINK-1219 3.5 22:14:00 10° WNW 22:18:10 87° SSW 22:18:42 67° SE
EO 1 Delta rocket 4.2 22:13:39 10° NNE 22:19:08 62° E 22:20:22 46° SSE
STARLINK-1374 3.3 22:21:42 73° E 22:21:42 73° E 22:25:13 10° ENE
Cosmos 2292 Rocket 4.4 22:21:07 28° W 22:21:27 29° WNW 22:24:19 10° NNW
Okean 1-7 Rocket 3.6 22:21:40 56° SSE 22:22:24 68° E 22:26:56 10° NNE
SL-4 R/B 3.3 22:17:57 10° W 22:22:40 50° NNW 22:27:21 10° ENE
STARLINK-1211 3.4 22:19:00 10° WNW 22:23:10 81° SSW 22:23:29 73° SSE
Nadezhda 2 Rocket 4.4 22:21:20 41° S 22:23:36 84° E 22:29:47 10° N
STARLINK-1339 3.3 22:25:05 82° E 22:25:05 82° E 22:28:45 10° ENE
Meteor 1-24 Rocket 3.6 22:23:29 46° SSE 22:25:01 70° E 22:30:30 10° NNE
BREEZE-M R/B 3.6 22:16:46 10° SW 22:25:06 63° SSE 22:29:04 10° ENE
Meteor 2-14 Rocket 4.4 22:25:23 41° S 22:27:37 76° E 22:33:46 10° NNE
FALCON 9 R/B 3.8 22:29:23 26° SE 22:29:23 26° SE 22:36:44 10° ESE
STARLINK-1245 3.4 22:23:58 10° WNW 22:28:07 75° SSW 22:28:15 74° S
CENTAUR R/B 4.2 22:21:26 10° NW 22:28:20 30° WSW 22:31:20 25° SW
Cosmos 1356 Rocket 4.3 22:24:24 10° N 22:28:25 41° ENE 22:29:26 35° ESE
STARLINK-1377 3.2 22:28:31 90° S 22:28:31 90° S 22:32:19 10° ENE
Cosmos 1674 3.6 22:30:25 36° W 22:30:53 37° WNW 22:34:27 10° N
Cosmos 1980 Rocket 4.4 22:30:32 10° ESE 22:31:52 11° E 22:33:11 10° E
STARLINK-1353 3.3 22:31:55 81° W 22:32:05 86° NNW 22:35:54 10° ENE
ATLAS 3B R/B 3.1 22:26:26 10° NW 22:32:52 46° WSW 22:35:00 36° SSW
STARLINK-1233 3.5 22:28:59 10° WNW 22:33:03 70° SW 22:33:03 70° SW
STARLINK-1375 3.3 22:35:24 72° W 22:35:44 82° NNW 22:39:35 10° ENE
CZ-2D R/B 4.5 22:34:54 10° ENE 22:35:49 10° E 22:36:43 10° E
SeaSat 1 3.8 22:33:13 10° NNE 22:37:40 35° NW 22:41:04 16° WSW
STARLINK-1204 3.6 22:33:56 10° WNW 22:37:48 63° WSW 22:37:48 63° WSW
STARLINK-1350 3.4 22:38:49 64° W 22:39:18 78° NNW 22:43:08 10° ENE
FALCON 9 DEB 4.4 22:38:18 22° W 22:40:07 41° NNW 22:43:26 10° NE
Cosmos 2228 3.8 22:36:40 10° NNW 22:40:34 37° W 22:41:02 36° WSW
STARLINK-1352 3.5 22:42:20 57° W 22:43:00 74° NNW 22:46:51 10° ENE
STARLINK-1238 3.8 22:38:58 10° WNW 22:42:38 56° WSW 22:42:38 56° WSW
Cosmos 1892 Rocket 3.8 22:42:26 49° SW 22:43:16 60° W 22:47:36 10° N
Cosmos 921 Rocket 3.0 22:43:27 57° SW 22:44:14 73° WNW 22:48:36 10° NNE
Nadezhda 1 Rocket 4.3 22:38:15 10° N 22:44:26 62° ENE 22:47:25 31° SSE
STARLINK-1239 4.4 22:41:14 10° NW 22:45:18 51° NNE 22:49:21 10° E
Cosmos 1726 Rocket 4.2 22:41:15 10° NNW 22:45:19 41° W 22:45:51 39° WSW
Cosmos 2219 3.1 22:40:40 10° NNW 22:46:23 85° ENE 22:48:40 38° SSE
STARLINK-1368 3.6 22:45:47 51° W 22:46:36 70° NNW 22:50:25 10° ENE
STARLINK-1201 3.9 22:43:58 10° WNW 22:47:25 49° WSW 22:47:25 49° WSW
Cosmos 2297 Rocket 2.3 22:43:22 10° NNW 22:49:02 74° ENE 22:51:43 32° SE
STARLINK-1240 4.3 22:46:11 10° NW 22:50:15 53° NNE 22:54:20 10° E
STARLINK-1369 3.6 22:49:19 46° W 22:50:16 67° NNW 22:54:06 10° ENE
CZ-4 R/B 3.8 22:46:41 10° NNE 22:51:27 71° ESE 22:52:31 51° SSE
Cosmos 220 Rocket 4.1 22:51:14 52° SW 22:52:11 70° WNW 22:56:38 10° NNE
STARLINK-1206 4.1 22:48:57 10° WNW 22:52:11 43° WSW 22:52:11 43° WSW
STARLINK-1372 3.7 22:52:49 41° W 22:53:56 64° NNW 22:57:45 10° ENE
Helios 1B rocket 2.4 22:50:16 10° NNE 22:54:24 67° ESE 22:54:57 59° SSE
Cosmos 1455 3.9 22:52:00 10° NNE 22:55:09 25° ENE 22:56:21 21° ESE
STARLINK-1216 4.2 22:51:08 10° NW 22:55:15 56° NNE 22:59:20 10° ESE
YAOGAN 11 4.4 22:55:54 46° WSW 22:56:23 49° W 23:00:35 10° NNW
STARLINK-1378 3.8 22:56:19 37° W 22:57:36 61° NNW 23:01:25 10° NE
STARLINK-1205 4.3 22:53:57 10° WNW 22:56:57 38° W 22:56:57 38° W
STARLINK-1203 4.2 22:54:34 10° WNW 22:58:45 59° NNE 23:02:54 10° ESE
Cosmos 2082 4.5 22:54:17 10° NNW 22:59:46 48° ENE 23:04:07 16° SE
SJ 16-02 1.6 22:55:45 10° NNW 23:00:10 63° ENE 23:01:35 40° SE
STARLINK-1237 4.1 22:56:10 10° WNW 23:00:17 60° NNE 23:04:23 10° ESE
Cosmos 990 Rocket 4.4 22:55:28 10° NNW 23:00:42 60° ENE 23:03:21 28° SE
STARLINK-1379 3.9 22:59:54 34° W 23:01:19 58° NNW 23:05:08 10° NE
ATLAS CENTAUR R/B 1.6 22:58:55 10° NW 23:01:20 66° NE 23:06:17 10° ESE
COSMOS 2455 4.3 22:56:29 10° WSW 23:01:49 32° NW 23:07:11 10° NNE
STARLINK-1329 4.0 23:01:40 32° W 23:03:11 57° NNW 23:06:59 10° NE
STARLINK-1202 4.0 23:01:06 10° WNW 23:05:14 63° NNE 23:09:21 10° ESE
STARLINK-1320 4.1 23:05:20 33° WNW 23:06:04 40° NNW 23:09:02 10° NE
STARLINK-1322 4.1 23:05:38 33° WNW 23:06:22 40° NNW 23:09:21 10° NE
STARLINK-1324 4.2 23:05:59 33° WNW 23:06:45 39° NNW 23:09:42 10° NE
STARLINK-1362 4.0 23:05:18 29° W 23:06:59 54° NNW 23:10:46 10° NE
STARLINK-1294 4.2 23:06:16 33° WNW 23:07:02 39° NNW 23:10:01 10° NE
STARLINK-1261 4.2 23:06:37 32° WNW 23:07:24 39° NNW 23:10:22 10° NE
STARLINK-1325 4.2 23:06:57 32° WNW 23:07:45 39° NNW 23:10:43 10° NE
STARLINK-1333 4.2 23:07:16 32° WNW 23:08:05 39° NNW 23:11:03 10° NE
STARLINK-1334 4.2 23:07:36 31° WNW 23:08:26 39° NNW 23:11:23 10° NE
STARLINK-1326 4.2 23:07:56 31° WNW 23:08:46 38° NNW 23:11:44 10° NE
STARLINK-1323 4.2 23:08:14 31° WNW 23:09:05 38° NNW 23:12:03 10° NE
STARLINK-1349 4.2 23:08:34 31° WNW 23:09:25 38° NNW 23:12:23 10° NE
Cosmos 1656 3.7 23:07:41 42° S 23:09:36 75° ESE 23:15:13 10° NNE
CZ-4C R/B 2.4 23:08:30 41° SSE 23:09:42 50° ESE 23:15:19 10° NE
STARLINK-1336 4.2 23:08:53 30° WNW 23:09:46 38° NNW 23:12:44 10° NE
STARLINK-1331 4.2 23:09:13 30° WNW 23:10:07 38° NNW 23:13:04 10° NE
STARLINK-1344 4.2 23:09:32 30° WNW 23:10:26 38° NNW 23:13:23 10° NE
STARLINK-1373 4.1 23:08:56 27° W 23:10:46 52° NNW 23:14:32 10° NE
STARLINK-1343 4.3 23:09:52 29° WNW 23:10:48 38° NNW 23:13:45 10° NE
Helios 1A 4.3 23:10:47 26° W 23:10:58 26° W 23:14:31 10° NW
STARLINK-1346 4.3 23:10:08 29° WNW 23:11:07 38° NNW 23:14:07 10° NE
SL-14 R/B 4.1 23:10:39 35° W 23:11:08 37° WNW 23:14:44 10° N
STARLINK-1328 4.3 23:10:31 29° WNW 23:11:28 37° NNW 23:14:25 10° NE
STARLINK-1354 4.3 23:10:51 29° WNW 23:11:50 37° NNW 23:14:46 10° NE
STARLINK-1347 4.3 23:11:09 29° WNW 23:12:08 37° NNW 23:15:05 10° NE
STARLINK-1357 4.3 23:11:30 28° WNW 23:12:30 37° NNW 23:15:26 10° NE
Lacrosse 4 Rocket 2.4 23:08:31 10° NNW 23:12:42 46° NE 23:15:17 20° ESE
STARLINK-1335 4.3 23:11:49 28° WNW 23:12:50 37° NNW 23:15:47 10° NE
STARLINK-1327 4.3 23:12:09 28° WNW 23:13:10 37° NNW 23:16:07 10° NE
STARLINK-1365 4.2 23:11:17 24° W 23:13:21 50° NNW 23:17:07 10° NE
Cosmos 1437 3.8 23:13:45 34° NW 23:13:45 34° NW 23:16:13 10° N
STARLINK-1340 4.3 23:12:30 28° WNW 23:13:31 36° NNW 23:16:28 10° NE
STARLINK-1356 4.3 23:12:48 27° WNW 23:13:51 36° NNW 23:16:47 10° NE
STARLINK-1345 4.3 23:13:06 27° WNW 23:14:10 36° NNW 23:17:06 10° NE
Cosmos 1626 3.3 23:14:06 30° W 23:14:31 31° WNW 23:17:52 10° N
STARLINK-1355 4.3 23:13:27 27° WNW 23:14:31 36° NNW 23:17:27 10° NE
STARLINK-1390 4.2 23:12:37 24° W 23:14:39 50° NNW 23:18:27 10° NE
STARLINK-1321 4.3 23:13:46 27° WNW 23:14:51 36° NNW 23:17:47 10° NE
STARLINK-1358 4.4 23:14:05 26° WNW 23:15:11 36° NNW 23:18:07 10° NE
STARLINK-1246 3.8 23:11:04 10° WNW 23:15:14 71° NNE 23:19:22 10° ESE
STARLINK-1332 4.4 23:14:23 26° WNW 23:15:30 36° NNW 23:18:26 10° NE
STARLINK-1348 4.4 23:14:46 26° WNW 23:15:54 36° NNW 23:18:49 10° NE
STARLINK-1330 4.4 23:15:05 26° WNW 23:16:14 35° NNW 23:19:09 10° NE
STARLINK-1363 4.4 23:15:23 25° WNW 23:16:33 35° NNW 23:19:29 10° NE
STARLINK-1337 4.4 23:15:44 25° WNW 23:16:54 35° NNW 23:19:49 10° NE
STARLINK-1342 4.4 23:16:03 25° WNW 23:17:14 35° NNW 23:20:10 10° NE
STARLINK-1364 4.4 23:16:22 25° WNW 23:17:34 35° NNW 23:20:29 10° NE
STARLINK-1376 4.4 23:16:42 25° WNW 23:17:55 35° NNW 23:20:50 10° NE
STARLINK-1360 4.4 23:16:59 24° WNW 23:18:13 35° NNW 23:21:08 10° NE
STARLINK-1361 4.4 23:17:20 24° WNW 23:18:35 35° NNW 23:21:30 10° NE
Meteor 1-21 Rocket 4.5 23:16:23 35° SSE 23:18:39 62° E 23:24:20 10° NNE
Cosmos 1697 Rocket 3.1 23:16:53 35° SSE 23:18:49 50° ESE 23:24:17 10° NE
STARLINK-1367 4.4 23:17:38 24° WNW 23:18:56 35° NNW 23:21:53 10° NE
STARLINK-1366 4.4 23:18:00 24° WNW 23:19:16 34° NNW 23:22:11 10° NE
STARLINK-1224 3.7 23:16:02 10° WNW 23:20:12 76° NNE 23:24:21 10° ESE
Alouette 2 Rocket 4.4 23:16:03 10° N 23:21:15 50° ENE 23:23:04 29° SE
ERBS 3.7 23:18:16 10° NW 23:21:24 37° NNE 23:24:33 10° E
Cosmos 1745 Rocket 3.9 23:20:45 37° SSW 23:23:19 77° W 23:29:30 10° N
STARLINK-1225 3.6 23:21:03 10° WNW 23:25:13 81° NNE 23:29:22 10° ESE
Cosmos 2227 Rocket 2.2 23:20:26 10° NNW 23:26:06 69° WSW 23:28:21 37° S
Cosmos 1763 Rocket 3.5 23:25:40 42° S 23:27:19 70° ESE 23:32:23 10° NNE
Cosmos 1626 Rocket 3.8 23:28:25 44° SW 23:29:24 56° WNW 23:33:42 10° N
STARLINK-1230 3.5 23:26:00 10° WNW 23:30:10 86° NNE 23:34:19 10° ESE
MOZ.5/SAFIR/RUBIN 5/SL-8 4.5 23:28:27 23° SE 23:31:05 49° ENE 23:35:34 10° N
PSLV R/B 4.1 23:29:01 10° N 23:33:21 49° WNW 23:34:39 37° WSW
STARLINK-1243 3.5 23:31:00 10° WNW 23:35:11 89° SSW 23:39:20 10° ESE
ADEOS II 4.4 23:33:10 10° NE 23:36:05 15° E 23:38:59 10° ESE
STARLINK-1236 3.5 23:35:58 10° WNW 23:40:08 83° SSW 23:44:06 11° SE
SL-19 R/B 4.3 23:36:30 10° NNE 23:42:05 88° ESE 23:44:47 34° SSW
Cosmos-2242 3.2 23:38:52 10° N 23:43:06 64° ENE 23:44:50 34° SSE
ATLAS CENTAUR R/B 4.4 23:42:34 10° NW 23:43:37 11° NNW 23:44:41 10° NNW
Cosmos 2181 Rocket 4.2 23:42:34 10° N 23:49:03 75° E 23:53:26 22° SSE
STARLINK-1269 3.4 23:45:56 10° WNW 23:50:05 72° SW 23:53:38 14° SE
Cosmos 1328 3.9 23:50:52 42° SSE 23:52:02 67° E 23:56:00 10° NNE
NOSS 7 (E) 4.5 23:53:25 52° WSW 23:54:03 66° NW 23:57:08 10° NE
STARLINK-43 3.2 23:53:49 59° SSW 23:54:23 73° SE 23:58:04 10° ENE
Cosmos 1812 Rocket 4.2 23:50:43 10° NNW 23:54:55 42° W 23:55:56 36° SW
STARLINK-1200 3.5 23:50:55 10° WNW 23:55:02 67° SW 23:58:23 15° SE
